Overview Statistics Trail Chart Weather Telemetry Raw packets
 

This is the latest recevied weather packets stored in our database for station/object 4S6DRJ-13. If no packets are shown the sender has not sent any weather packets the latest 10 day(s).

<< 344 345 346 347 348 349 350 >>
Time Temp. Humidity Pressure Rain* Wind** Luminosity Snow
1787951496 27.78° C 85% 1009 hPa 0 mm 0.89 m/s, 190° 0 W/m² -
1787951436 27.78° C 85% 1009 hPa 0 mm 1.34 m/s, 239° 0 W/m² -
1787951375 27.78° C 85% 1008.9 hPa 0 mm 0.89 m/s, 229° 0 W/m² -
1787951314 27.78° C 85% 1008.9 hPa 0 mm 0.89 m/s, 256° 0 W/m² -
1787951253 27.78° C 85% 1009 hPa 0 mm 1.34 m/s, 256° 0 W/m² -
1787951192 27.78° C 85% 1009.1 hPa 0 mm 1.34 m/s, 253° 0 W/m² -
1787951131 27.78° C 85% 1009.1 hPa 0 mm 1.34 m/s, 227° 0 W/m² -
1787951070 27.78° C 85% 1009.1 hPa 0 mm 0.89 m/s, 224° 0 W/m² -
1787951009 27.78° C 85% 1008.9 hPa 0 mm 0.89 m/s, 168° 0 W/m² -
1787950948 27.78° C 85% 1009.1 hPa 0 mm 0.45 m/s, 231° 0 W/m² -
1787950886 27.78° C 85% 1009.1 hPa 0 mm 0.89 m/s, 241° 0 W/m² -
1787950826 27.78° C 85% 1009.1 hPa 0 mm 1.34 m/s, 230° 0 W/m² -
1787950765 27.78° C 85% 1009 hPa 0 mm 1.34 m/s, 237° 0 W/m² -
1787950704 27.78° C 86% 1008.8 hPa 0 mm 0.89 m/s, 252° 0 W/m² -
1787950643 27.78° C 86% 1009 hPa 0 mm 1.79 m/s, 147° 0 W/m² -
1787950582 27.78° C 86% 1009.2 hPa 0 mm 0.89 m/s, 253° 0 W/m² -
1787950521 27.78° C 86% 1009.2 hPa 0 mm 1.34 m/s, 254° 0 W/m² -
1787950460 27.78° C 86% 1009.2 hPa 0 mm 2.68 m/s, 243° 0 W/m² -
1787950399 27.78° C 86% 1009.1 hPa 0 mm 0.45 m/s, 215° 0 W/m² -
1787950337 27.78° C 86% 1009.1 hPa 0 mm 0.45 m/s, 128° 0 W/m² -
1787950277 27.78° C 86% 1009.3 hPa 0 mm 0.89 m/s, 156° 0 W/m² -
1787950216 27.78° C 86% 1009.2 hPa 0 mm 2.68 m/s, 228° 0 W/m² -
1787950155 27.78° C 86% 1009.2 hPa 0 mm 0.89 m/s, 185° 0 W/m² -
1787950094 27.78° C 86% 1009.3 hPa 0 mm 1.34 m/s, 275° 0 W/m² -
1787950032 27.78° C 86% 1009.4 hPa 0 mm 2.24 m/s, 217° 0 W/m² -

* Rain latest hour (hover to see other rain measurements)
** Current wind speed in m/s (hover to see current wind gust speed)